Location: Newark
(49.2191°N, 12.6671°E)
Time: 15:34:43
(UTC+00:00)

Transit 4A - Pass Details

Date: 31 January 2020
Orbit: 872 x 973 km, 66.8° (Epoch: 23 February)

Event Time Altitude Azimuth Distance (km) Brightness Sun altitude
Rises 12:26:28 0° 324° (NW) 3,474 10.6 21.8°
Reaches altitude 10° 12:28:58 10° 327° (NNW) 2,531 9.9 21.7°
Maximum altitude 12:34:48 73° 52° (NE) 918 8.1 21.4°
Drops below altitude 10° 12:40:40 10° 137° (SE) 2,538 10.6 21.1°
Sets 12:43:10 0° 139° (SE) 3,484 11.3 21.0°
